Flag for United Kingdom Weather past 2 weeks in Manchester, England, United Kingdom

Now
45 °F

Light rain. Mostly cloudy.


Feels Like: 38 °F
Forecast: 40 / 54 °F
Wind: 13 mph from South

Location: Manchester Airport

Current Time: Mar 28, 2015 at 2:33:55 AM

Latest Report: Mar 28, 2015 at 1:50 AM


Visibility: N/A

Pressure: 29.95 "Hg

Humidity: 81%

Dew point: 39 °F

Location of ManchesterLocation

Historic Weather in Manchester — Graph

°F

Manchester temperature yesterday

Maximum temperature yesterday: 50 °F (at 2:50 PM)
Minimum temperature yesterday: 34 °F (at 4:20 AM)
Average temperature yesterday: 43 °F

Past Weeks' High & Low Weather Summary

 TemperatureHumidityPressure
High52 °F (Mar 18, 1:50 PM)100% (Mar 18, 12:50 AM)30.60 "Hg (Mar 18, 12:50 AM)
Low27 °F (Mar 18, 6:20 AM)50% (Mar 25, 1:50 PM)29.42 "Hg (Mar 26, 5:50 AM)
Average41 °F79%30.21 "Hg
* Reported Mar 13 12:20 AM — Mar 28 12:50 AM, Manchester, Weather by CustomWeather, © 2015

Note: Actual official high and low records may vary slightly from our data, if they occured in-between our weather recording intervals... More about our weather records

Advertising

Manchester weather history for previous 24 hours

 ConditionsComfort  
Time TempWeatherWind HumidityBarometerVisibility
12:50 AM
Sat, Mar 28
46 °FMostly cloudy.10 mph76%29.98 "HgN/A
12:20 AM45 °FMostly cloudy.9 mph76%29.98 "HgN/A
11:50 PM
Fri, Mar 27
45 °FOvercast.9 mph76%30.01 "HgN/A
11:20 PM45 °FPassing clouds.8 mph76%30.01 "HgN/A
10:50 PM45 °FPassing clouds.7 mph71%30.04 "HgN/A
10:20 PM43 °FPassing clouds.8 mph76%30.04 "HgN/A
9:50 PM43 °FPassing clouds.5 mph76%30.07 "HgN/A
9:20 PM43 °FPassing clouds.6 mph76%30.07 "HgN/A
8:50 PM43 °FPassing clouds.6 mph76%30.07 "HgN/A
8:20 PM39 °FClear.5 mph81%30.07 "Hg10 mi
7:50 PM37 °FClear.6 mph87%30.07 "Hg10 mi
7:20 PM39 °FPassing clouds.3 mph81%30.07 "HgN/A
6:50 PM43 °FPassing clouds.3 mph71%30.07 "HgN/A
6:20 PM45 °FScattered clouds.3 mph71%30.07 "HgN/A
5:50 PM46 °FPassing clouds.5 mph66%30.07 "HgN/A
5:20 PM48 °FPassing clouds.3 mph62%30.07 "HgN/A
4:50 PM48 °FPassing clouds.3 mph58%30.07 "HgN/A
4:20 PM48 °FPartly sunny.5 mph58%30.07 "HgN/A
3:50 PM50 °FPartly sunny.6 mph54%30.07 "HgN/A
3:20 PM48 °FPassing clouds.7 mph58%30.07 "HgN/A
2:50 PM50 °FPartly sunny.9 mph50%30.09 "HgN/A
2:20 PM48 °FSunny.12 mph54%30.09 "Hg10 mi
1:50 PM48 °FPassing clouds.7 mph50%30.09 "HgN/A
1:20 PM48 °FOvercast.7 mph50%30.09 "HgN/A
12:50 PM48 °FOvercast.9 mph50%30.09 "HgN/A
12:20 PM46 °FScattered clouds.10 mph57%30.09 "HgN/A
11:50 AM46 °FPartly sunny.9 mph62%30.09 "HgN/A
11:20 AM46 °FPartly sunny.12 mph62%30.09 "HgN/A
10:50 AM46 °FScattered clouds.10 mph62%30.09 "HgN/A
10:20 AM48 °FScattered clouds.7 mph66%30.09 "HgN/A
9:50 AM45 °FScattered clouds.8 mph81%30.09 "HgN/A
9:20 AM45 °FPassing clouds.7 mph81%30.09 "HgN/A
8:50 AM41 °FPassing clouds.6 mph93%30.07 "HgN/A
8:20 AM39 °FPassing clouds.6 mph93%30.07 "HgN/A
7:50 AM37 °FPassing clouds.5 mph100%30.07 "HgN/A
7:20 AM37 °FPassing clouds.5 mph93%30.07 "HgN/A
6:50 AM36 °FPassing clouds.6 mph100%30.07 "HgN/A
6:20 AM34 °FSunny.7 mph100%30.04 "Hg10 mi
5:50 AM34 °FClear.5 mph93%30.07 "Hg10 mi
5:20 AM36 °FClear.3 mph93%30.04 "Hg10 mi
4:50 AM34 °FClear.5 mph93%30.04 "Hg10 mi
4:20 AM34 °FClear.6 mph93%30.04 "Hg10 mi
3:50 AM36 °FChilly.3 mph87%30.01 "HgN/A
3:20 AM39 °FChilly.5 mph81%30.01 "HgN/A
2:50 AM39 °FPassing clouds.3 mph81%30.01 "HgN/A
2:20 AM41 °FPassing clouds.9 mph76%29.98 "HgN/A
Weather by CustomWeather, © 2015

See weather overviewHow to use our weather pages